Погода в Бафусаме

Камерун     5°28′41″N   10°25′33″E
темп.,
°C
ветер,
м/с
пор.,
м/с
влажн.,
%
обл.,
%
осадки,
мм/ч
давл.,
гПа
погр.,
м
9 мая, вс
вс901:00+18з1194100 6.2 101635
04:00+18сз1196100 3.1 101446
07:00+18зюз129697 5.0 101650
10:00+22юз228188 3.1 1016528
13:00+20юз138986 7.3 1015187
16:00+20з1391100 3.4 1013133
19:00+17сз259899 12.1 1015221
22:00+17з1194100 0.1 101632
10 мая, пн
пн1001:00+17зюз1193100 0.1 101611
04:00+17зсз119285 0.1 101513
07:00+17зсз119178 0.1 101751
10:00+23ссз237198 0.0 1017725
13:00+26св2358100 0.1 10141507
16:00+25всв2365100 0.3 10111050
19:00+20юз118842 1.3 101312
22:00+18зюз11907 0.0 101512
11 мая, вт
вт1101:00+17з119279 0.0 101411
04:00+17з11947 0.0 101512
07:00+18з119182 0.0 101644
10:00+24всв126695 0.1 1016612
13:00+27юв245699 1.0 10131502
16:00+26ююв346834 1.5 1011810
19:00+20юз228888 2.9 101417
22:00+18зюз129497 0.6 101531
12 мая, ср
ср1201:00+18вюв1298100 1.8 101697
04:00+18з1199100 5.2 101590
07:00+18зюз1297100 5.6 101660
10:00+21з1184100 0.0 1016147
13:00+22вюв2276100 0.0 1014465
16:00+22вюв1183100 0.0 1012253
19:00+19юз229190 0.8 101430
22:00+18юз1194100 0.1 101517
13 мая, чт
чт1301:00+18зюз219464 0.3 101539
04:00+17юз1196100 0.6 101511
07:00+18з1195100 2.1 101658
10:00+22юв1181100 0.6 1016330
13:00+26в136388 1.2 10121104
16:00+25вюв237586 1.7 1011925
19:00+20юз118998 3.7 101313
22:00+18зюз129421 0.5 101426